(235750) = 2004 TU353

Discovered at Kitt Peak on 2004-10-11 by M. W. Buie.

Orbit

Orbit type: Main Belt

Note: WebGL enabled browser required.

epoch2023-09-13.0
epoch JD2460200.5
perihelion date2022-01-10.92001
perihelion JD2459590.42001
argument of perihelion (°)82.70290
ascending node (°)70.72713
inclination (°)5.60676
eccentricity0.1933456
perihelion distance (AU)2.0545767
Tisserand w.r.t. Jupiter3.4
ΔV w.r.t. Earth (km/sec)9.2
semimajor axis (AU)2.5470346
mean anomaly (°)147.92390
mean daily motion (°/day)0.24246640
aphelion distance (AU)3.039
period (years)4.06
P-vector [x]-0.88990939
P-vector [y]0.37039557
P-vector [z]0.26621119
Q-vector [x]-0.44671672
Q-vector [y]-0.82570587
Q-vector [z]-0.34446187
absolute magnitude16.64
phase slope0.15
uncertainty0
referenceMPEC 2023-X152
observations used493
oppositions14
arc length (days)6902
first opposition used2004
last opposition used2023
residual rms (arc-secs)0.70
perturbers coarse indicatorM-v
perturbers precise indicator003Ek
first observation date used2004-10-11.0
last observation date used2023-09-04.0
computer nameMPCLINUX
JD of orbit computation2456847.692728
perihelion JD uncertainty (days)9.6777E-05
argument of perihelion uncertainty (°)6.3732E-05
ascending node uncertainty (°)5.9026E-05
inclination uncertainty (°)7.3547E-06
eccentricity uncertainty 4.5629E-08
perihelion distance uncertainty (AU)1.1781E-07
Minimum Orbit Intersection Distances (in AU)
for orbit epoch: 2460200.5, reference: E2023-XF2
Mercury1.68747
Venus1.33663
Earth1.07262
Mars0.40742
Jupiter1.97647
Saturn6.51028
Uranus16.3828
Neptune26.921

Observations

505 total observations over interval: 2004 10 11.37704 – 2023 09 04.273694
These data are available for download (format description).

Date (UT) J2000 RA J2000 Dec Magn Location Ref
2004 10 11.37704 03 53 18.30 +16 36 09.3 20.3 R 695 – Kitt Peak MPS 118729
2004 10 11.46292 03 53 16.25 +16 36 06.9   695 – Kitt Peak MPS 118729
2004 10 15.41958 03 51 35.61 +16 33 48.4 20.7 V 691 – Steward Observatory, Kitt Peak-Spacewatch MPS 118729
2004 10 15.44639 03 51 34.77 +16 33 47.1 20.5 V 691 – Steward Observatory, Kitt Peak-Spacewatch MPS 118729
2004 10 15.47328 03 51 33.96 +16 33 45.9 20.7 V 691 – Steward Observatory, Kitt Peak-Spacewatch MPS 118729
2004 11 07.25285 03 34 08.70 +16 05 28.6 19.6   704 – Lincoln Laboratory ETS, New Mexico MPS 119339
2004 11 07.28884 03 34 06.53 +16 05 24.7 19.8   704 – Lincoln Laboratory ETS, New Mexico MPS 119339
2004 11 07.30099 03 34 05.75 +16 05 22.9 19.8   704 – Lincoln Laboratory ETS, New Mexico MPS 119339
2004 11 10.22101 03 31 09.50 +16 00 28.6 20.0 V 691 – Steward Observatory, Kitt Peak-Spacewatch MPS 119339
2004 11 10.25327 03 31 07.47 +16 00 25.5 20.1 V 691 – Steward Observatory, Kitt Peak-Spacewatch MPS 119339
2004 11 10.27972 03 31 05.81 +16 00 22.7 20.0 V 691 – Steward Observatory, Kitt Peak-Spacewatch MPS 119339
2006 01 25.52385 14 40 16.57 -10 16 26.4   691 – Steward Observatory, Kitt Peak-Spacewatch MPS 178483
2006 01 25.53629 14 40 17.54 -10 16 31.3   691 – Steward Observatory, Kitt Peak-Spacewatch MPS 178483
2006 01 25.54873 14 40 18.66 -10 16 35.7   691 – Steward Observatory, Kitt Peak-Spacewatch MPS 178483
2006 02 06.50266 14 55 45.20 -11 19 36.9   691 – Steward Observatory, Kitt Peak-Spacewatch MPS 178483
2006 02 06.51511 14 55 46.09 -11 19 40.4   691 – Steward Observatory, Kitt Peak-Spacewatch MPS 178483
2006 02 06.52756 14 55 46.94 -11 19 44.1   691 – Steward Observatory, Kitt Peak-Spacewatch MPS 178483
2006 04 08.42688 15 18 54.96 -12 52 21.5   691 – Steward Observatory, Kitt Peak-Spacewatch MPS 178483
2006 04 08.44421 15 18 54.33 -12 52 20.3   691 – Steward Observatory, Kitt Peak-Spacewatch MPS 178483
2006 04 08.46155 15 18 53.70 -12 52 19.2   691 – Steward Observatory, Kitt Peak-Spacewatch MPS 178483
2006 04 18.28029 15 12 03.26 -12 39 35.5 20.4 V 691 – Steward Observatory, Kitt Peak-Spacewatch MPS 169913
2006 04 18.29757 15 12 02.41 -12 39 33.2 20.3 V 691 – Steward Observatory, Kitt Peak-Spacewatch MPS 169913
2006 04 18.31483 15 12 01.48 -12 39 32.6 20.0 V 691 – Steward Observatory, Kitt Peak-Spacewatch MPS 169913
2006 04 21.27915 15 09 31.17 -12 35 01.7   691 – Steward Observatory, Kitt Peak-Spacewatch MPS 169913
2006 04 21.29647 15 09 30.25 -12 35 00.1   691 – Steward Observatory, Kitt Peak-Spacewatch MPS 169913
2006 04 21.31380 15 09 29.27 -12 34 58.3   691 – Steward Observatory, Kitt Peak-Spacewatch MPS 169913
2006 04 21.34133 15 09 27.75 -12 34 56.7 18.9 V 703 – Catalina Sky Survey MPS 169913
2006 04 21.35109 15 09 27.18 -12 34 56.5 19.5 V 703 – Catalina Sky Survey MPS 169913
2006 04 21.36090 15 09 26.67 -12 34 54.8 19.2 V 703 – Catalina Sky Survey MPS 169913
2006 04 21.37069 15 09 26.06 -12 34 51.7 19.4 V 703 – Catalina Sky Survey MPS 169913
2006 05 05.26236 14 56 09.47 -12 13 20.1 19.6 V 691 – Steward Observatory, Kitt Peak-Spacewatch MPS 170839
2006 05 05.28048 14 56 08.34 -12 13 18.7 19.6 V 691 – Steward Observatory, Kitt Peak-Spacewatch MPS 170839
2006 05 05.29888 14 56 07.22 -12 13 17.3 19.5 V 691 – Steward Observatory, Kitt Peak-Spacewatch MPS 170839
2008 10 06.42758 03 23 30.94 +14 02 56.1 19.8 V G96 – Mt. Lemmon Survey MPS 260238
2008 10 06.44135 03 23 30.55 +14 02 55.1 19.9 V G96 – Mt. Lemmon Survey MPS 260238
2008 10 06.45510 03 23 30.19 +14 02 53.9 20.1 V G96 – Mt. Lemmon Survey MPS 260238
2008 10 06.46891 03 23 29.79 +14 02 52.8 20.3 V G96 – Mt. Lemmon Survey MPS 260238
2008 10 20.25740 03 15 02.91 +13 38 29.5 20.4 V 691 – Steward Observatory, Kitt Peak-Spacewatch MPS 260590
2008 10 20.27503 03 15 02.09 +13 38 27.2 20.4 V 691 – Steward Observatory, Kitt Peak-Spacewatch MPS 260590
2008 10 20.29301 03 15 01.19 +13 38 25.2 20.4 V 691 – Steward Observatory, Kitt Peak-Spacewatch MPS 260590
2008 10 24.22942 03 11 47.64 +13 29 33.0 20.2 V 691 – Steward Observatory, Kitt Peak-Spacewatch MPS 261517
2008 10 24.24706 03 11 46.71 +13 29 31.0 20.1 V 691 – Steward Observatory, Kitt Peak-Spacewatch MPS 261517
2008 10 24.26470 03 11 45.78 +13 29 28.3 20.0 V 691 – Steward Observatory, Kitt Peak-Spacewatch MPS 261517
2008 10 28.21863 03 08 13.79 +13 19 58.8 20.1 V 691 – Steward Observatory, Kitt Peak-Spacewatch MPS 261517
2008 10 28.23633 03 08 12.77 +13 19 56.3 20.0 V 691 – Steward Observatory, Kitt Peak-Spacewatch MPS 261517
2008 10 28.25403 03 08 11.76 +13 19 53.7 20.1 V 691 – Steward Observatory, Kitt Peak-Spacewatch MPS 261517
2008 11 01.21130 03 04 25.54 +13 10 01.3 20.1 V 691 – Steward Observatory, Kitt Peak-Spacewatch MPS 263197
2008 11 01.22897 03 04 24.50 +13 09 58.4 20.1 V 691 – Steward Observatory, Kitt Peak-Spacewatch MPS 263197
2008 11 01.24665 03 04 23.44 +13 09 56.5 20.8 V 691 – Steward Observatory, Kitt Peak-Spacewatch MPS 263197
2008 11 08.22693 02 57 23.04 +12 52 19.9 19.3 V G96 – Mt. Lemmon Survey MPS 264597
2008 11 08.23523 02 57 22.50 +12 52 18.9 19.3 V G96 – Mt. Lemmon Survey MPS 264597
2008 11 08.24343 02 57 21.92 +12 52 17.7 18.7 V G96 – Mt. Lemmon Survey MPS 264597
2008 11 08.25165 02 57 21.45 +12 52 16.2 18.8 V G96 – Mt. Lemmon Survey MPS 264597
2008 11 18.18707 02 47 18.38 +12 29 19.1 20.3 V 703 – Catalina Sky Survey MPS 265238
2008 11 18.19427 02 47 17.95 +12 29 17.5 19.8 V 703 – Catalina Sky Survey MPS 265238
2008 11 18.20152 02 47 17.48 +12 29 17.7 20.3 V 703 – Catalina Sky Survey MPS 265238
2008 11 18.20877 02 47 17.01 +12 29 15.8 19.9 V 703 – Catalina Sky Survey MPS 265238
2009 01 16.12015 02 29 27.81 +13 40 44.3 20.5 V G96 – Mt. Lemmon Survey MPS 272508
2009 01 16.12518 02 29 27.96 +13 40 45.4 20.3 V G96 – Mt. Lemmon Survey MPS 272508
2009 01 16.13032 02 29 28.10 +13 40 46.7 20.9 V G96 – Mt. Lemmon Survey MPS 272508
2009 01 16.13546 02 29 28.28 +13 40 48.4 20.4 V G96 – Mt. Lemmon Survey MPS 272508
2009 12 20.51419 13 18 06.19 -02 39 26.2 20.6 V G96 – Mt. Lemmon Survey MPS 308622
2009 12 20.52062 13 18 06.84 -02 39 30.1 21.2 V G96 – Mt. Lemmon Survey MPS 308622
2009 12 20.52712 13 18 07.52 -02 39 33.9 20.1 V G96 – Mt. Lemmon Survey MPS 308622
2009 12 20.53365 13 18 08.13 -02 39 37.2 21.0 V G96 – Mt. Lemmon Survey MPS 308622
2010 01 22.901340 14 09 00.61 -06 49 53.0   C51 – WISE MPS 337204
2010 01 23.033772 14 09 11.01 -06 50 38.1   C51 – WISE MPS 337204
2010 01 23.430684 14 09 41.68 -06 52 50.7   C51 – WISE MPS 337204
2010 01 23.430811 14 09 41.67 -06 52 50.1   C51 – WISE MPS 337204
2010 01 23.563116 14 09 51.92 -06 53 35.2   C51 – WISE MPS 337204
2010 01 23.695420 14 10 02.174 -06 54 18.11   C51 – WISE MPS 903633
2010 01 23.761637 14 10 07.17 -06 54 40.7   C51 – WISE MPS 337204
2010 01 23.893941 14 10 17.510 -06 55 25.03   C51 – WISE MPS 903633
2010 01 24.026245 14 10 27.509 -06 56 10.54   C51 – WISE MPS 903633
2010 02 14.47524 14 33 14.97 -08 25 15.8 20.3 V G96 – Mt. Lemmon Survey MPS 313146
2010 02 14.48120 14 33 15.26 -08 25 16.4 20.3 V G96 – Mt. Lemmon Survey MPS 313146
2010 02 14.48714 14 33 15.55 -08 25 17.4 20.4 V G96 – Mt. Lemmon Survey MPS 313146
2010 02 14.49311 14 33 15.84 -08 25 18.3 20.8 V G96 – Mt. Lemmon Survey MPS 313146
2010 02 26.637971 14 41 09.945 -08 49 32.84 19.87 z F51 – Pan-STARRS 1, Haleakala MPS 338867
2010 02 26.649969 14 41 10.273 -08 49 33.71 20.28 z F51 – Pan-STARRS 1, Haleakala MPS 338867
2010 03 19.43331 14 44 06.03 -08 49 16.3 19.7 V G96 – Mt. Lemmon Survey MPS 317894
2010 03 19.43390 14 44 06.00 -08 49 16.8 19.7 V G96 – Mt. Lemmon Survey MPS 317894
2010 03 19.44053 14 44 05.92 -08 49 16.6 19.6 V G96 – Mt. Lemmon Survey MPS 317894
2010 03 19.44113 14 44 05.89 -08 49 16.3 19.8 V G96 – Mt. Lemmon Survey MPS 317894
2010 03 19.44777 14 44 05.82 -08 49 15.7 19.8 V G96 – Mt. Lemmon Survey MPS 317894
2010 03 19.44838 14 44 05.82 -08 49 15.9 19.8 V G96 – Mt. Lemmon Survey MPS 317894
2010 03 19.45494 14 44 05.71 -08 49 15.3 19.8 V G96 – Mt. Lemmon Survey MPS 317894
2010 03 19.45556 14 44 05.67 -08 49 15.5 19.8 V G96 – Mt. Lemmon Survey MPS 317894
2010 04 04.25561 14 36 53.15 -08 20 50.5 19.7 V 691 – Steward Observatory, Kitt Peak-Spacewatch MPS 322127
